Regional Weather Roundup
Issued by NWS

Home | Current Version | Previous Version | Text Only | Print | Product List | Glossary On
Versions: 1 2 3 4 5 6 7 8 9 10 11 12 13 14 15 16 17 18 19 20 21 22 23 24 25 26 27 28 29 30 31 32 33 34 35 36 37 38 39 40 41 42 43 44 45 46 47 48 49 50
000
ASCA44 KEWX 221520
RWRMX

LATIN AMERICA AND CARIBBEAN REGIONAL WEATHER ROUNDUP
NATIONAL WEATHER SERVICE AUSTIN/SAN ANTONIO TX
900 AM CST WED FEB 22 2017

NOTE: "FAIR" INDICATED FEW OR NO CLOUDS BELOW 12,000 FEET WITH NO
SIGNIFICANT WEATHER AND/OR OBSTRUCTIONS TO VISIBILITY.

BAJA CALIFORNIA

CITY           SKY/WX    TMP DP  RH WIND       PRES   REMARKS
LORETO         SUNNY     73  57  56 N8        29.93R
LA PAZ         SUNNY     52  48  87 CALM      29.99R
MEXICALI       MOCLDY    59  43  55 N3        30.01
S.J. DEL CABO  SUNNY     66  39  37 CALM      29.98R
TIJUANA        FOG       54  52  94 CALM      30.17R VSB 3/4

NORTHWESTERN MEXICO

CITY           SKY/WX    TMP DP  RH WIND       PRES   REMARKS
CULIACAN       FOG       59  59 100 CALM      29.94R VSB 1/4
DURANGO        SUNNY     37  14  38 CALM      30.37R
GUAYMAS        SUNNY     66  57  72 CALM      29.89S
HERMOSILLO     SUNNY     59  57  94 CALM      29.98R
CD. JUAREZ     MOSUNNY   55  39  54 SW12      30.06F
LOS MOCHIS     FOG       59  55  88 CALM      29.95R VSB 0
OBREGON        SUNNY     55  55 100 SE5       29.90R

NORTHEASTERN MEXICO

CITY           SKY/WX    TMP DP  RH WIND       PRES   REMARKS
CHIHUAHUA      SUNNY     46  19  34 S6        30.22S WCI  43
MATAMOROS      SUNNY     64  50  59 W7        29.95R
MONCLOVA         N/A    N/A N/A N/A MISG        N/A
MONTERREY      SUNNY     72  18  13 W13       30.01R
NUEVO LAREDO   SUNNY     52  45  76 CALM      29.97R
PIEDRAS NEGRAS SUNNY     57  43  58 NW5       30.00R
REYNOSA        SUNNY     64  39  39 W6        29.97R
SALTILLO       SUNNY     59  36  41 S12       30.25S
TORREON        SUNNY     55  23  28 CALM      30.22R
CD. VICTORIA   SUNNY     63  30  29 CALM      30.02R

WESTERN MEXICO

CITY           SKY/WX    TMP DP  RH WIND       PRES   REMARKS
AGUASCALIENTES SUNNY     50  10  20 N8        30.34R WCI  47
COLIMA         SUNNY     70  50  49 N9        30.06R
DEL BAJIO      SUNNY     54  32  43 NW6       30.35R
GUADALAJARA    SUNNY     57  34  41 CALM      30.26R
MANZANILLO     MOSUNNY   72  61  68 CALM      29.95R
MAZATLAN       PTSUNNY   68  64  88 SE6       29.98R
P. VALLARTA    SUNNY     63  59  88 CALM      29.98R
URUAPAN        SUNNY     54  46  76 CALM      30.21R
ZACATECAS      SUNNY     43  14  31 CALM      30.36R

CENTRAL MEXICO

CITY           SKY/WX    TMP DP  RH WIND       PRES   REMARKS
CUERNAVACA     SUNNY     72  46  40 SE5       30.16R
MEXICO CITY    SUNNY     57  34  41 CALM      30.38S
MORELIA        SUNNY     57  37  47 CALM      30.30R
POZA RICA      SUNNY     64  59  82 SW5       30.07R
PUEBLA         SUNNY     54  30  40 N9        30.35R
QUERETARO      SUNNY     48  39  71 E3        30.37R
S. LUIS POTOSI SUNNY     46  25  42 CALM      30.31R
TAMPICO        SUNNY     68  57  68 W5        30.00R
TOLUCA         SUNNY     46  36  66 CALM      30.42R

SOUTHERN MEXICO

CITY           SKY/WX    TMP DP  RH WIND       PRES   REMARKS
ACAPULCO       SUNNY     77  70  78 NW3       29.95R
B. DE HUATULCO SUNNY     77  59  53 CALM      30.01
OAXACA         SUNNY     57  45  62 N3        30.27R
P. ESCONDIDO   SUNNY     77  68  73 CALM      30.03R
VERACRUZ       SUNNY     72  57  60 CALM      30.03S
ZIHUATANEJO    SUNNY     75  68  78 CALM      29.97R

YUCATAN PENINSULA

CITY           SKY/WX    TMP DP  RH WIND       PRES   REMARKS
CAMPECHE       SUNNY     77  64  65 NW12      29.95R
CANCUN         SUNNY     75  59  57 W15       29.88S
CHETUMAL       MOSUNNY   75  64  69 W9        29.95R
CD. DEL CARMEN SUNNY     77  66  69 W12       30.01R
COZUMEL        MOSUNNY   75  61  60 NW16      29.88R
MERIDA         MOSUNNY   77  59  53 W12       29.94R
MINATITLAN     SUNNY     66  63  88 S5        30.04R
TAPACHULA      PTSUNNY   81  70  69 E2        29.92R
TUX. GUTIERREZ PTSUNNY   70  57  64 W7        30.08R
VILLAHERMOSA   SUNNY     72  66  83 SW5       30.06R

CENTRAL AMERICA

CITY           SKY/WX    TMP DP  RH WIND       PRES   REMARKS
BELIZE CITY    MOSUNNY   77  66  69 NW12      29.95R
MANAGUA        MOSUNNY   84  68  58 SE9       29.89S

CARIBBEAN

CITY           SKY/WX    TMP DP  RH WIND       PRES   REMARKS
ARUBA          MOSUNNY   86  70  58 E12       29.92S HX  90
KINGSTON       MOSUNNY   81  66  61 SE8       29.89S
NASSAU         PTSUNNY   75  66  73 E12       29.88F
SAN JUAN       PTSUNNY   82  68  61 VRB7      29.92S
ST. CROIX      PTSUNNY   81  64  57 N8        29.91
ST. KITTS      MOSUNNY   81  64  57 NW5       29.89S
ST. MAARTEN    LGT RAIN  75  70  83 NE13      29.89S
ST. THOMAS     CLOUDY    81  68  65 NE7       29.89

$$




USA.gov is the U.S. government's official web portal to all federal, state and local government web resources and services.